Location: Long Barn
(38.0930°N, 120.1344°W)
Time: 19:19:35
(UTC+00:00)

Hubble Space Telescope - Pass Details

Date: 29 January 2026
Orbit: 478 x 480 km, 28.5° (Epoch: 5 February)

Event Time Altitude Azimuth Distance (km) Brightness Sun altitude
Rises 01:53:26 0° 243° (WSW) 2,511 6.4 -7.2°
Reaches altitude 10° 01:56:05 10° 225° (SW) 1,634 4.3 -7.7°
Maximum altitude 01:58:47 19° 179° (S) 1,192 2.7 -8.2°
Drops below altitude 10° 02:01:28 10° 133° (SE) 1,636 2.9 -8.7°
Enters shadow 02:03:07 - 120° (ESE) 2,160 3.4 -9.0°
